Wetterdaten: Freitag, 30.08.2013
Datum Zeit Temperatur Luftfeuchte Luftdruck Regen Wind Richtung Richtung Taupunkt Windchill Windben
30.08.2013 00:00 8,8 C 89 % 1023,6 hPa 0,0 l/m 0,0 km/h (0 Bft) O-SO 112 7,1 C 8,7 C 0,0 km/h (0 Bft)
30.08.2013 00:05 8,7 C 89 % 1023,6 hPa 0,0 l/m 0,0 km/h (0 Bft) SO 135 7,0 C 8,5 C 0,0 km/h (0 Bft)
30.08.2013 00:10 8,6 C 89 % 1023,6 hPa 0,0 l/m 0,0 km/h (0 Bft) S-SW 202 6,9 C 8,5 C 0,0 km/h (0 Bft)
30.08.2013 00:15 8,4 C 89 % 1023,6 hPa 0,0 l/m 0,0 km/h (0 Bft) W 270 6,7 C 8,2 C 0,0 km/h (0 Bft)
30.08.2013 00:20 8,5 C 90 % 1023,6 hPa 0,0 l/m 0,0 km/h (0 Bft) W 270 7,0 C 8,2 C 0,0 km/h (0 Bft)
30.08.2013 00:25 8,1 C 90 % 1023,6 hPa 0,0 l/m 0,0 km/h (0 Bft) W 270 6,6 C 8,0 C 0,0 km/h (0 Bft)
30.08.2013 00:30 8,0 C 89 % 1023,6 hPa 0,0 l/m 0,0 km/h (0 Bft) W 270 6,3 C 7,9 C 0,0 km/h (0 Bft)
30.08.2013 00:35 7,9 C 90 % 1023,6 hPa 0,0 l/m 0,0 km/h (0 Bft) W-NW 292 6,4 C 7,8 C 0,0 km/h (0 Bft)
30.08.2013 00:40 8,1 C 90 % 1023,6 hPa 0,0 l/m 0,0 km/h (0 Bft) W-NW 292 6,6 C 7,7 C 0,0 km/h (0 Bft)
30.08.2013 00:45 7,8 C 90 % 1023,6 hPa 0,0 l/m 0,0 km/h (0 Bft) W-NW 292 6,3 C 7,6 C 0,0 km/h (0 Bft)
30.08.2013 00:50 7,9 C 90 % 1023,6 hPa 0,0 l/m 0,0 km/h (0 Bft) W-NW 292 6,4 C 7,6 C 0,0 km/h (0 Bft)
30.08.2013 00:55 7,7 C 90 % 1023,6 hPa 0,0 l/m 0,0 km/h (0 Bft) W-NW 292 6,2 C 7,6 C 0,0 km/h (0 Bft)
30.08.2013 01:00 7,9 C 90 % 1023,7 hPa 0,0 l/m 0,5 km/h (0 Bft) O-SO 112 6,4 C 7,6 C 2,1 km/h (1 Bft)
30.08.2013 01:05 8,0 C 90 % 1023,7 hPa 0,0 l/m 0,5 km/h (0 Bft) SO 135 6,5 C 7,8 C 0,0 km/h (0 Bft)
30.08.2013 01:10 7,9 C 90 % 1023,7 hPa 0,0 l/m 0,2 km/h (0 Bft) NO 45 6,4 C 7,8 C 0,0 km/h (0 Bft)
30.08.2013 01:15 7,9 C 90 % 1023,7 hPa 0,0 l/m 0,0 km/h (0 Bft) NO 45 6,4 C 7,6 C 0,0 km/h (0 Bft)
30.08.2013 01:20 7,7 C 90 % 1023,6 hPa 0,0 l/m 0,0 km/h (0 Bft) NW 315 6,2 C 7,6 C 0,0 km/h (0 Bft)
30.08.2013 01:25 7,7 C 90 % 1023,6 hPa 0,0 l/m 0,0 km/h (0 Bft) NW 315 6,2 C 7,3 C 0,0 km/h (0 Bft)
30.08.2013 01:30 7,5 C 90 % 1023,6 hPa 0,0 l/m 0,0 km/h (0 Bft) N-NO 22 6,0 C 7,3 C 0,0 km/h (0 Bft)
30.08.2013 01:35 7,4 C 90 % 1023,6 hPa 0,0 l/m 0,0 km/h (0 Bft) N 360 5,9 C 7,2 C 0,0 km/h (0 Bft)
30.08.2013 01:40 7,6 C 90 % 1023,5 hPa 0,0 l/m 0,0 km/h (0 Bft) N-NO 22 6,1 C 7,1 C 0,0 km/h (0 Bft)
30.08.2013 01:45 7,8 C 91 % 1023,5 hPa 0,0 l/m 0,0 km/h (0 Bft) N-NO 22 6,4 C 7,2 C 0,0 km/h (0 Bft)
30.08.2013 01:50 7,8 C 91 % 1023,5 hPa 0,0 l/m 0,0 km/h (0 Bft) N-NO 22 6,4 C 7,3 C 0,0 km/h (0 Bft)
30.08.2013 01:55 7,5 C 91 % 1023,5 hPa 0,0 l/m 0,0 km/h (0 Bft) N-NW 337 6,1 C 7,3 C 0,0 km/h (0 Bft)
30.08.2013 02:00 7,5 C 91 % 1023,2 hPa 0,0 l/m 0,0 km/h (0 Bft) N 360 6,1 C 7,3 C 0,0 km/h (0 Bft)
30.08.2013 02:05 7,3 C 90 % 1023,2 hPa 0,0 l/m 0,0 km/h (0 Bft) N-NO 22 5,8 C 7,1 C 0,0 km/h (0 Bft)
30.08.2013 02:10 7,3 C 91 % 1023,2 hPa 0,0 l/m 0,0 km/h (0 Bft) NO 45 5,9 C 7,0 C 0,0 km/h (0 Bft)
30.08.2013 02:15 6,9 C 91 % 1023,2 hPa 0,0 l/m 0,0 km/h (0 Bft) NW 315 5,5 C 7,0 C 0,0 km/h (0 Bft)
30.08.2013 02:20 7,1 C 90 % 1023,1 hPa 0,0 l/m 0,0 km/h (0 Bft) N 360 5,6 C 6,9 C 0,0 km/h (0 Bft)
30.08.2013 02:25 7,0 C 90 % 1023,1 hPa 0,0 l/m 0,0 km/h (0 Bft) NW 315 5,5 C 6,8 C 0,0 km/h (0 Bft)
30.08.2013 02:30 7,0 C 91 % 1023,1 hPa 0,0 l/m 0,0 km/h (0 Bft) N-NO 22 5,6 C 6,8 C 0,0 km/h (0 Bft)
30.08.2013 02:35 7,0 C 91 % 1023,1 hPa 0,0 l/m 0,0 km/h (0 Bft) N-NW 337 5,6 C 6,8 C 0,0 km/h (0 Bft)
30.08.2013 02:40 7,0 C 91 % 1023,2 hPa 0,0 l/m 0,0 km/h (0 Bft) N-NO 22 5,6 C 6,9 C 0,0 km/h (0 Bft)
30.08.2013 02:45 7,3 C 91 % 1023,2 hPa 0,0 l/m 0,0 km/h (0 Bft) N-NW 337 5,9 C 6,9 C 0,0 km/h (0 Bft)
30.08.2013 02:50 7,2 C 91 % 1023,2 hPa 0,0 l/m 0,0 km/h (0 Bft) N 360 5,8 C 6,8 C 0,0 km/h (0 Bft)
30.08.2013 02:55 7,2 C 91 % 1023,2 hPa 0,0 l/m 0,0 km/h (0 Bft) N 360 5,8 C 6,8 C 0,0 km/h (0 Bft)
30.08.2013 03:00 6,9 C 92 % 1023,1 hPa 0,0 l/m 0,0 km/h (0 Bft) N-NW 337 5,7 C 6,8 C 0,0 km/h (0 Bft)
30.08.2013 03:05 6,7 C 91 % 1023,1 hPa 0,0 l/m 0,0 km/h (0 Bft) N-NW 337 5,3 C 6,6 C 0,0 km/h (0 Bft)
30.08.2013 03:10 6,6 C 91 % 1023,1 hPa 0,0 l/m 0,0 km/h (0 Bft) N-NW 337 5,2 C 6,4 C 0,0 km/h (0 Bft)
30.08.2013 03:15 6,6 C 91 % 1023,1 hPa 0,0 l/m 0,0 km/h (0 Bft) NO 45 5,2 C 6,3 C 0,0 km/h (0 Bft)
30.08.2013 03:20 6,8 C 91 % 1023,2 hPa 0,0 l/m 0,2 km/h (0 Bft) N 360 5,4 C 6,4 C 1,9 km/h (1 Bft)
30.08.2013 03:25 7,0 C 91 % 1023,2 hPa 0,0 l/m 0,3 km/h (0 Bft) N-NO 22 5,6 C 6,6 C 0,0 km/h (0 Bft)
30.08.2013 03:30 6,8 C 92 % 1023,2 hPa 0,0 l/m 0,3 km/h (0 Bft) N 360 5,6 C 6,6 C 0,0 km/h (0 Bft)
30.08.2013 03:35 6,8 C 92 % 1023,2 hPa 0,0 l/m 0,0 km/h (0 Bft) N-NO 22 5,6 C 6,5 C 0,0 km/h (0 Bft)
30.08.2013 03:40 6,7 C 92 % 1023,2 hPa 0,0 l/m 0,0 km/h (0 Bft) N 360 5,5 C 6,5 C 0,0 km/h (0 Bft)
30.08.2013 03:45 6,4 C 92 % 1023,2 hPa 0,0 l/m 0,0 km/h (0 Bft) N-NW 337 5,2 C 6,4 C 0,0 km/h (0 Bft)
30.08.2013 03:50 6,4 C 91 % 1023,2 hPa 0,0 l/m 0,0 km/h (0 Bft) N-NW 337 5,0 C 6,2 C 0,0 km/h (0 Bft)
30.08.2013 03:55 6,4 C 91 % 1023,2 hPa 0,0 l/m 0,0 km/h (0 Bft) N 360 5,0 C 6,0 C 0,0 km/h (0 Bft)
30.08.2013 04:00 6,4 C 92 % 1023,1 hPa 0,0 l/m 0,0 km/h (0 Bft) N-NO 22 5,2 C 6,0 C 0,0 km/h (0 Bft)
30.08.2013 04:05 6,3 C 91 % 1023,1 hPa 0,0 l/m 0,0 km/h (0 Bft) N-NW 337 4,9 C 6,1 C 0,0 km/h (0 Bft)
30.08.2013 04:10 6,1 C 91 % 1023,1 hPa 0,0 l/m 0,0 km/h (0 Bft) N-NW 337 4,7 C 6,0 C 0,0 km/h (0 Bft)
30.08.2013 04:15 6,3 C 92 % 1023,1 hPa 0,0 l/m 0,0 km/h (0 Bft) N-NW 337 5,1 C 6,0 C 0,0 km/h (0 Bft)
30.08.2013 04:20 6,2 C 92 % 1022,8 hPa 0,0 l/m 0,0 km/h (0 Bft) W-NW 292 5,0 C 6,0 C 0,0 km/h (0 Bft)
30.08.2013 04:25 6,1 C 92 % 1022,8 hPa 0,0 l/m 0,0 km/h (0 Bft) W-NW 292 4,9 C 6,0 C 0,0 km/h (0 Bft)
30.08.2013 04:30 6,0 C 92 % 1022,8 hPa 0,0 l/m 0,0 km/h (0 Bft) NO 45 4,8 C 6,0 C 0,0 km/h (0 Bft)
30.08.2013 04:35 6,4 C 92 % 1022,8 hPa 0,0 l/m 0,0 km/h (0 Bft) N-NO 22 5,2 C 5,9 C 0,0 km/h (0 Bft)
30.08.2013 04:40 6,5 C 92 % 1022,9 hPa 0,0 l/m 0,2 km/h (0 Bft) NO 45 5,3 C 6,0 C 0,0 km/h (0 Bft)
30.08.2013 04:45 6,7 C 92 % 1022,9 hPa 0,0 l/m 0,6 km/h (0 Bft) N-NO 22 5,5 C 6,3 C 0,0 km/h (0 Bft)
30.08.2013 04:50 6,6 C 92 % 1022,9 hPa 0,0 l/m 0,5 km/h (0 Bft) N 360 5,4 C 6,4 C 0,0 km/h (0 Bft)
30.08.2013 04:55 6,3 C 92 % 1022,9 hPa 0,0 l/m 0,0 km/h (0 Bft) NO 45 5,1 C 6,3 C 0,0 km/h (0 Bft)
30.08.2013 05:00 6,0 C 92 % 1022,8 hPa 0,0 l/m 0,0 km/h (0 Bft) NO 45 4,8 C 6,1 C 0,0 km/h (0 Bft)
30.08.2013 05:05 6,0 C 92 % 1022,8 hPa 0,0 l/m 0,0 km/h (0 Bft) NO 45 4,8 C 6,0 C 0,0 km/h (0 Bft)
30.08.2013 05:10 5,8 C 93 % 1022,8 hPa 0,0 l/m 0,0 km/h (0 Bft) NO 45 4,8 C 5,8 C 0,0 km/h (0 Bft)
30.08.2013 05:15 5,9 C 93 % 1022,8 hPa 0,0 l/m 0,0 km/h (0 Bft) N-NO 22 4,9 C 5,5 C 0,0 km/h (0 Bft)
30.08.2013 05:20 5,8 C 93 % 1022,8 hPa 0,0 l/m 0,0 km/h (0 Bft) N 360 4,8 C 5,6 C 0,0 km/h (0 Bft)
30.08.2013 05:25 5,8 C 93 % 1022,8 hPa 0,0 l/m 0,0 km/h (0 Bft) N-NO 22 4,8 C 5,6 C 0,0 km/h (0 Bft)
30.08.2013 05:30 5,8 C 93 % 1022,8 hPa 0,0 l/m 0,0 km/h (0 Bft) N 360 4,8 C 5,6 C 0,0 km/h (0 Bft)
30.08.2013 05:35 5,6 C 93 % 1022,8 hPa 0,0 l/m 0,0 km/h (0 Bft) N-NO 22 4,6 C 5,6 C 0,0 km/h (0 Bft)
30.08.2013 05:40 5,7 C 93 % 1022,8 hPa 0,0 l/m 0,0 km/h (0 Bft) N-NO 22 4,7 C 5,5 C 0,0 km/h (0 Bft)
30.08.2013 05:45 5,8 C 93 % 1022,8 hPa 0,0 l/m 0,0 km/h (0 Bft) N-NO 22 4,8 C 5,4 C 0,0 km/h (0 Bft)
30.08.2013 05:50 6,0 C 92 % 1022,8 hPa 0,0 l/m 0,0 km/h (0 Bft) N-NO 22 4,8 C 5,4 C 0,0 km/h (0 Bft)
30.08.2013 05:55 6,0 C 92 % 1022,8 hPa 0,0 l/m 0,0 km/h (0 Bft) N-NW 337 4,8 C 5,8 C 0,0 km/h (0 Bft)
30.08.2013 06:00 5,9 C 94 % 1022,8 hPa 0,0 l/m 0,0 km/h (0 Bft) N 360 5,0 C 5,9 C 0,0 km/h (0 Bft)
30.08.2013 06:05 5,9 C 93 % 1022,8 hPa 0,0 l/m 0,0 km/h (0 Bft) N-NW 337 4,9 C 5,8 C 0,0 km/h (0 Bft)
30.08.2013 06:10 5,9 C 94 % 1022,8 hPa 0,0 l/m 0,0 km/h (0 Bft) N 360 5,0 C 5,8 C 0,0 km/h (0 Bft)
30.08.2013 06:15 6,0 C 92 % 1022,8 hPa 0,0 l/m 0,0 km/h (0 Bft) N 360 4,8 C 5,6 C 0,0 km/h (0 Bft)
30.08.2013 06:20 5,9 C 94 % 1022,8 hPa 0,0 l/m 0,0 km/h (0 Bft) N 360 5,0 C 5,7 C 0,0 km/h (0 Bft)
30.08.2013 06:25 5,9 C 94 % 1022,8 hPa 0,0 l/m 0,0 km/h (0 Bft) N 360 5,0 C 5,8 C 0,0 km/h (0 Bft)
30.08.2013 06:30 5,8 C 94 % 1022,8 hPa 0,0 l/m 0,0 km/h (0 Bft) N 360 4,9 C 5,8 C 0,0 km/h (0 Bft)
30.08.2013 06:35 6,0 C 92 % 1022,8 hPa 0,0 l/m 0,0 km/h (0 Bft) N 360 4,8 C 5,8 C 0,0 km/h (0 Bft)
30.08.2013 06:40 6,1 C 92 % 1022,9 hPa 0,0 l/m 0,0 km/h (0 Bft) NO 45 4,9 C 5,8 C 0,0 km/h (0 Bft)
30.08.2013 06:45 6,3 C 93 % 1022,9 hPa 0,0 l/m 0,0 km/h (0 Bft) W-NW 292 5,3 C 5,9 C 0,0 km/h (0 Bft)
30.08.2013 06:50 6,4 C 93 % 1022,9 hPa 0,0 l/m 0,0 km/h (0 Bft) N-NO 22 5,4 C 6,0 C 0,0 km/h (0 Bft)
30.08.2013 06:55 6,4 C 93 % 1022,9 hPa 0,0 l/m 0,0 km/h (0 Bft) N-NO 22 5,4 C 6,1 C 0,0 km/h (0 Bft)
30.08.2013 07:00 6,3 C 93 % 1022,9 hPa 0,0 l/m 0,0 km/h (0 Bft) N-NO 22 5,3 C 6,1 C 0,0 km/h (0 Bft)
30.08.2013 07:05 6,2 C 92 % 1022,9 hPa 0,0 l/m 0,0 km/h (0 Bft) N-NO 22 5,0 C 6,1 C 0,0 km/h (0 Bft)
30.08.2013 07:10 6,2 C 92 % 1022,9 hPa 0,0 l/m 0,0 km/h (0 Bft) N-NO 22 5,0 C 6,5 C 0,0 km/h (0 Bft)
30.08.2013 07:15 6,3 C 92 % 1022,9 hPa 0,0 l/m 0,0 km/h (0 Bft) N-NW 337 5,1 C 7,6 C 0,0 km/h (0 Bft)
30.08.2013 07:20 6,5 C 93 % 1022,9 hPa 0,0 l/m 0,0 km/h (0 Bft) N-NO 22 5,5 C 7,9 C 0,0 km/h (0 Bft)
30.08.2013 07:25 6,6 C 93 % 1022,9 hPa 0,0 l/m 0,0 km/h (0 Bft) N-NO 22 5,6 C 8,7 C 0,0 km/h (0 Bft)
30.08.2013 07:30 6,9 C 93 % 1022,9 hPa 0,0 l/m 0,0 km/h (0 Bft) N-NO 22 5,8 C 9,1 C 0,0 km/h (0 Bft)
30.08.2013 07:35 7,2 C 93 % 1022,9 hPa 0,0 l/m 0,0 km/h (0 Bft) N-NO 22 6,1 C 9,9 C 0,0 km/h (0 Bft)
30.08.2013 07:40 7,3 C 93 % 1023,0 hPa 0,0 l/m 0,0 km/h (0 Bft) N-NO 22 6,2 C 10,6 C 0,0 km/h (0 Bft)
30.08.2013 07:45 7,4 C 93 % 1023,0 hPa 0,0 l/m 0,0 km/h (0 Bft) NO 45 6,3 C 11,5 C 0,0 km/h (0 Bft)
30.08.2013 07:50 8,8 C 93 % 1023,0 hPa 0,0 l/m 0,0 km/h (0 Bft) N-NW 337 7,7 C 12,0 C 0,0 km/h (0 Bft)
30.08.2013 07:55 9,7 C 92 % 1023,0 hPa 0,0 l/m 0,0 km/h (0 Bft) NO 45 8,5 C 12,7 C 0,0 km/h (0 Bft)
30.08.2013 08:00 11,4 C 91 % 1022,8 hPa 0,0 l/m 0,0 km/h (0 Bft) NO 45 10,0 C 13,3 C 0,0 km/h (0 Bft)
30.08.2013 08:05 12,0 C 88 % 1022,8 hPa 0,0 l/m 0,0 km/h (0 Bft) N-NO 22 10,1 C 14,0 C 0,0 km/h (0 Bft)
30.08.2013 08:10 11,3 C 88 % 1022,8 hPa 0,0 l/m 0,0 km/h (0 Bft) N-NO 22 9,4 C 13,7 C 0,0 km/h (0 Bft)
30.08.2013 08:15 12,6 C 87 % 1022,8 hPa 0,0 l/m 0,3 km/h (0 Bft) NO 45 10,5 C 13,7 C 2,4 km/h (1 Bft)
30.08.2013 08:20 13,1 C 85 % 1022,9 hPa 0,0 l/m 0,3 km/h (0 Bft) O-NO 67 10,6 C 14,4 C 0,0 km/h (0 Bft)
30.08.2013 08:25 13,8 C 83 % 1022,9 hPa 0,0 l/m 0,0 km/h (0 Bft) O-NO 67 11,0 C 15,2 C 0,0 km/h (0 Bft)
30.08.2013 08:30 14,3 C 82 % 1022,9 hPa 0,0 l/m 0,2 km/h (0 Bft) O-NO 67 11,3 C 15,7 C 0,0 km/h (0 Bft)
30.08.2013 08:35 14,9 C 81 % 1022,9 hPa 0,0 l/m 0,3 km/h (0 Bft) NO 45 11,7 C 16,4 C 2,7 km/h (1 Bft)
30.08.2013 08:40 15,1 C 78 % 1022,8 hPa 0,0 l/m 0,3 km/h (0 Bft) S-SO 157 11,3 C 17,1 C 1,9 km/h (1 Bft)
30.08.2013 08:45 15,7 C 76 % 1022,8 hPa 0,0 l/m 0,5 km/h (0 Bft) O-NO 67 11,5 C 17,6 C 1,8 km/h (1 Bft)
30.08.2013 08:50 16,2 C 74 % 1022,8 hPa 0,0 l/m 0,3 km/h (0 Bft) NO 45 11,6 C 18,0 C 0,0 km/h (0 Bft)
30.08.2013 08:55 16,5 C 70 % 1022,8 hPa 0,0 l/m 0,2 km/h (0 Bft) O-NO 67 11,0 C 18,7 C 0,0 km/h (0 Bft)
30.08.2013 09:00 16,9 C 70 % 1022,8 hPa 0,0 l/m 0,2 km/h (0 Bft) O 90 11,4 C 18,9 C 0,0 km/h (0 Bft)
30.08.2013 09:05 17,1 C 67 % 1022,8 hPa 0,0 l/m 0,2 km/h (0 Bft) O 90 10,9 C 19,7 C 1,8 km/h (1 Bft)
30.08.2013 09:10 17,9 C 68 % 1022,8 hPa 0,0 l/m 0,2 km/h (0 Bft) O-SO 112 11,9 C 20,0 C 0,0 km/h (0 Bft)
30.08.2013 09:15 18,5 C 66 % 1022,8 hPa 0,0 l/m 0,2 km/h (0 Bft) O-NO 67 12,0 C 20,7 C 0,0 km/h (0 Bft)
30.08.2013 09:20 19,1 C 65 % 1023,1 hPa 0,0 l/m 0,0 km/h (0 Bft) W-SW 247 12,4 C 21,2 C 0,0 km/h (0 Bft)
30.08.2013 09:25 18,7 C 61 % 1023,1 hPa 0,0 l/m 0,0 km/h (0 Bft) SO 135 11,0 C 22,0 C 0,0 km/h (0 Bft)
30.08.2013 09:30 18,8 C 60 % 1023,1 hPa 0,0 l/m 0,2 km/h (0 Bft) O-NO 67 10,9 C 22,4 C 0,0 km/h (0 Bft)
30.08.2013 09:35 19,1 C 58 % 1023,1 hPa 0,0 l/m 0,2 km/h (0 Bft) N-NW 337 10,6 C 22,8 C 1,9 km/h (1 Bft)
30.08.2013 09:40 19,5 C 59 % 1023,1 hPa 0,0 l/m 0,3 km/h (0 Bft) N 360 11,3 C 22,9 C 2,1 km/h (1 Bft)
30.08.2013 09:45 20,2 C 59 % 1023,1 hPa 0,0 l/m 0,5 km/h (0 Bft) O 90 11,9 C 23,1 C 0,0 km/h (0 Bft)
30.08.2013 09:50 19,9 C 57 % 1023,1 hPa 0,0 l/m 0,6 km/h (0 Bft) W-NW 292 11,1 C 23,4 C 1,6 km/h (1 Bft)
30.08.2013 09:55 20,5 C 56 % 1023,1 hPa 0,0 l/m 0,6 km/h (0 Bft) W-NW 292 11,4 C 23,3 C 3,4 km/h (1 Bft)
30.08.2013 10:00 20,4 C 55 % 1023,2 hPa 0,0 l/m 0,6 km/h (0 Bft) NO 45 11,1 C 23,4 C 0,0 km/h (0 Bft)
30.08.2013 10:05 20,1 C 55 % 1023,2 hPa 0,0 l/m 0,8 km/h (0 Bft) NO 45 10,8 C 23,5 C 0,0 km/h (0 Bft)
30.08.2013 10:10 19,6 C 50 % 1023,2 hPa 0,0 l/m 0,8 km/h (0 Bft) N-NO 22 8,9 C 23,5 C 3,9 km/h (1 Bft)
30.08.2013 10:15 20,3 C 54 % 1023,2 hPa 0,0 l/m 1,1 km/h (1 Bft) N-NW 337 10,7 C 23,4 C 0,0 km/h (0 Bft)
30.08.2013 10:20 20,5 C 54 % 1023,5 hPa 0,0 l/m 1,3 km/h (1 Bft) SW 225 10,9 C 23,5 C 2,1 km/h (1 Bft)
30.08.2013 10:25 20,7 C 51 % 1023,5 hPa 0,0 l/m 1,0 km/h (0 Bft) O-NO 67 10,2 C 24,2 C 2,6 km/h (1 Bft)
30.08.2013 10:30 20,9 C 48 % 1023,5 hPa 0,0 l/m 1,1 km/h (1 Bft) N-NW 337 9,5 C 24,4 C 3,4 km/h (1 Bft)
30.08.2013 10:35 20,5 C 51 % 1023,5 hPa 0,0 l/m 1,9 km/h (1 Bft) O-SO 112 10,0 C 24,0 C 4,3 km/h (1 Bft)
30.08.2013 10:40 20,4 C 49 % 1023,8 hPa 0,0 l/m 1,4 km/h (1 Bft) N-NO 22 9,3 C 24,4 C 1,8 km/h (1 Bft)
30.08.2013 10:45 21,2 C 49 % 1023,8 hPa 0,0 l/m 1,0 km/h (0 Bft) SW 225 10,1 C 24,4 C 0,0 km/h (0 Bft)
30.08.2013 10:50 22,2 C 48 % 1023,8 hPa 0,0 l/m 1,1 km/h (1 Bft) S 180 10,7 C 24,2 C 0,0 km/h (0 Bft)
30.08.2013 10:55 21,5 C 47 % 1023,8 hPa 0,0 l/m 1,6 km/h (1 Bft) NO 45 9,7 C 23,8 C 7,1 km/h (2 Bft)
30.08.2013 11:00 21,8 C 47 % 1024,0 hPa 0,0 l/m 2,1 km/h (1 Bft) N-NO 22 10,0 C 22,8 C 1,8 km/h (1 Bft)
30.08.2013 11:05 21,8 C 46 % 1024,0 hPa 0,0 l/m 2,9 km/h (1 Bft) W-NW 292 9,7 C 22,3 C 3,1 km/h (1 Bft)
30.08.2013 11:10 21,8 C 45 % 1024,0 hPa 0,0 l/m 2,6 km/h (1 Bft) NO 45 9,3 C 21,8 C 7,2 km/h (2 Bft)
30.08.2013 11:15 22,0 C 44 % 1024,0 hPa 0,0 l/m 2,9 km/h (1 Bft) N 360 9,2 C 21,4 C 2,4 km/h (1 Bft)
30.08.2013 11:20 22,0 C 44 % 1024,3 hPa 0,0 l/m 3,1 km/h (1 Bft) N 360 9,2 C 21,1 C 3,4 km/h (1 Bft)
30.08.2013 11:25 22,5 C 45 % 1024,3 hPa 0,0 l/m 2,6 km/h (1 Bft) NO 45 10,0 C 20,9 C 2,7 km/h (1 Bft)
30.08.2013 11:30 22,7 C 45 % 1024,3 hPa 0,0 l/m 2,6 km/h (1 Bft) N-NW 337 10,1 C 20,8 C 4,8 km/h (1 Bft)
30.08.2013 11:35 22,2 C 45 % 1024,3 hPa 0,0 l/m 3,5 km/h (1 Bft) O 90 9,7 C 21,0 C 5,0 km/h (1 Bft)
30.08.2013 11:40 23,2 C 43 % 1024,2 hPa 0,0 l/m 3,5 km/h (1 Bft) W 270 9,9 C 21,4 C 5,0 km/h (1 Bft)
30.08.2013 11:45 23,0 C 42 % 1024,2 hPa 0,0 l/m 3,1 km/h (1 Bft) N-NO 22 9,4 C 22,3 C 2,9 km/h (1 Bft)
30.08.2013 11:50 22,7 C 45 % 1024,2 hPa 0,0 l/m 3,7 km/h (1 Bft) N 360 10,1 C 22,8 C 6,9 km/h (2 Bft)
30.08.2013 11:55 22,8 C 44 % 1024,2 hPa 0,0 l/m 3,5 km/h (1 Bft) NW 315 9,9 C 23,3 C 3,5 km/h (1 Bft)
30.08.2013 12:00 22,6 C 43 % 1024,4 hPa 0,0 l/m 3,4 km/h (1 Bft) W-NW 292 9,4 C 23,6 C 3,7 km/h (1 Bft)
30.08.2013 12:05 22,3 C 46 % 1024,4 hPa 0,0 l/m 3,7 km/h (1 Bft) N-NW 337 10,1 C 23,6 C 8,4 km/h (2 Bft)
30.08.2013 12:10 22,2 C 43 % 1024,4 hPa 0,0 l/m 4,0 km/h (1 Bft) N-NW 337 9,0 C 23,8 C 5,1 km/h (1 Bft)
30.08.2013 12:15 23,2 C 45 % 1024,4 hPa 0,0 l/m 3,1 km/h (1 Bft) N-NO 22 10,6 C 24,1 C 1,6 km/h (1 Bft)
30.08.2013 12:20 22,6 C 45 % 1024,4 hPa 0,0 l/m 3,1 km/h (1 Bft) W-NW 292 10,1 C 24,3 C 8,0 km/h (2 Bft)
30.08.2013 12:25 22,8 C 45 % 1024,4 hPa 0,0 l/m 3,5 km/h (1 Bft) NW 315 10,2 C 24,2 C 5,5 km/h (1 Bft)
30.08.2013 12:30 22,6 C 43 % 1024,4 hPa 0,0 l/m 4,2 km/h (1 Bft) W-NW 292 9,4 C 24,0 C 5,3 km/h (1 Bft)
30.08.2013 12:35 21,9 C 43 % 1024,4 hPa 0,0 l/m 4,3 km/h (1 Bft) N-NW 337 8,7 C 23,9 C 8,7 km/h (2 Bft)
30.08.2013 12:40 22,5 C 45 % 1024,3 hPa 0,0 l/m 4,2 km/h (1 Bft) N 360 10,0 C 23,8 C 5,0 km/h (1 Bft)
30.08.2013 12:45 23,0 C 45 % 1024,3 hPa 0,0 l/m 3,2 km/h (1 Bft) N 360 10,4 C 24,1 C 4,8 km/h (1 Bft)
30.08.2013 12:50 22,6 C 43 % 1024,3 hPa 0,0 l/m 2,9 km/h (1 Bft) N 360 9,4 C 24,2 C 4,2 km/h (1 Bft)
30.08.2013 12:55 22,8 C 44 % 1024,3 hPa 0,0 l/m 2,9 km/h (1 Bft) W-NW 292 9,9 C 24,9 C 1,6 km/h (1 Bft)
30.08.2013 13:00 23,1 C 43 % 1024,4 hPa 0,0 l/m 2,6 km/h (1 Bft) W-NW 292 9,8 C 25,1 C 1,9 km/h (1 Bft)
30.08.2013 13:05 22,3 C 45 % 1024,4 hPa 0,0 l/m 2,7 km/h (1 Bft) N-NW 337 9,8 C 25,1 C 0,0 km/h (0 Bft)
30.08.2013 13:10 22,7 C 45 % 1024,4 hPa 0,0 l/m 2,6 km/h (1 Bft) W 270 10,1 C 25,2 C 5,5 km/h (1 Bft)
30.08.2013 13:15 22,1 C 43 % 1024,4 hPa 0,0 l/m 3,9 km/h (1 Bft) N 360 8,9 C 24,5 C 12,1 km/h (2 Bft)
30.08.2013 13:20 22,2 C 45 % 1024,3 hPa 0,0 l/m 4,8 km/h (1 Bft) N-NO 22 9,7 C 24,2 C 5,8 km/h (2 Bft)
30.08.2013 13:25 22,3 C 44 % 1024,3 hPa 0,0 l/m 3,7 km/h (1 Bft) S-SW 202 9,5 C 24,5 C 4,7 km/h (1 Bft)
30.08.2013 13:30 22,2 C 42 % 1024,3 hPa 0,0 l/m 4,0 km/h (1 Bft) W-NW 292 8,7 C 24,4 C 3,7 km/h (1 Bft)
30.08.2013 13:35 22,6 C 43 % 1024,3 hPa 0,0 l/m 2,9 km/h (1 Bft) W-SW 247 9,4 C 24,6 C 2,3 km/h (1 Bft)
30.08.2013 13:40 22,2 C 42 % 1024,3 hPa 0,0 l/m 1,8 km/h (1 Bft) W-NW 292 8,7 C 25,5 C 3,2 km/h (1 Bft)
30.08.2013 13:45 21,8 C 47 % 1024,3 hPa 0,0 l/m 1,9 km/h (1 Bft) O-NO 67 10,0 C 26,0 C 5,3 km/h (1 Bft)
30.08.2013 13:50 22,1 C 43 % 1024,3 hPa 0,0 l/m 2,9 km/h (1 Bft) NO 45 8,9 C 25,9 C 4,3 km/h (1 Bft)
30.08.2013 13:55 22,3 C 45 % 1024,3 hPa 0,0 l/m 3,1 km/h (1 Bft) NO 45 9,8 C 25,9 C 3,1 km/h (1 Bft)
30.08.2013 14:00 22,5 C 46 % 1024,3 hPa 0,0 l/m 2,9 km/h (1 Bft) S 180 10,3 C 26,3 C 3,1 km/h (1 Bft)
30.08.2013 14:05 21,6 C 43 % 1024,3 hPa 0,0 l/m 4,0 km/h (1 Bft) N-NW 337 8,5 C 25,6 C 2,3 km/h (1 Bft)
30.08.2013 14:10 20,8 C 44 % 1024,3 hPa 0,0 l/m 3,9 km/h (1 Bft) W-NW 292 8,1 C 24,3 C 3,5 km/h (1 Bft)
30.08.2013 14:16 22,2 C 43 % 1024,3 hPa 0,0 l/m 2,9 km/h (1 Bft) W-SW 247 9,0 C 24,1 C 2,9 km/h (1 Bft)
30.08.2013 14:20 22,9 C 43 % 1024,1 hPa 0,0 l/m 2,7 km/h (1 Bft) NW 315 9,6 C 24,7 C 2,3 km/h (1 Bft)
30.08.2013 14:25 22,5 C 43 % 1024,1 hPa 0,0 l/m 3,5 km/h (1 Bft) NW 315 9,3 C 25,3 C 8,4 km/h (2 Bft)
30.08.2013 14:30 22,6 C 43 % 1024,1 hPa 0,0 l/m 4,0 km/h (1 Bft) N-NW 337 9,4 C 25,2 C 12,2 km/h (2 Bft)
30.08.2013 14:35 22,6 C 45 % 1024,1 hPa 0,0 l/m 3,9 km/h (1 Bft) N-NW 337 10,1 C 25,5 C 1,9 km/h (1 Bft)
30.08.2013 14:40 22,6 C 43 % 1024,1 hPa 0,0 l/m 3,2 km/h (1 Bft) N 360 9,4 C 25,8 C 2,9 km/h (1 Bft)
30.08.2013 14:45 22,9 C 44 % 1024,1 hPa 0,0 l/m 3,1 km/h (1 Bft) W 270 10,0 C 25,7 C 4,3 km/h (1 Bft)
30.08.2013 14:50 22,0 C 44 % 1024,1 hPa 0,0 l/m 3,9 km/h (1 Bft) W-SW 247 9,2 C 25,0 C 9,2 km/h (2 Bft)
30.08.2013 14:55 22,6 C 45 % 1024,1 hPa 0,0 l/m 4,3 km/h (1 Bft) N-NW 337 10,1 C 24,8 C 3,4 km/h (1 Bft)
30.08.2013 15:00 23,1 C 43 % 1024,0 hPa 0,0 l/m 3,9 km/h (1 Bft) N-NW 337 9,8 C 25,5 C 8,9 km/h (2 Bft)
30.08.2013 15:05 22,1 C 43 % 1024,0 hPa 0,0 l/m 3,5 km/h (1 Bft) W 270 8,9 C 25,1 C 6,3 km/h (2 Bft)
30.08.2013 15:10 21,2 C 46 % 1024,0 hPa 0,0 l/m 3,5 km/h (1 Bft) W-NW 292 9,1 C 24,3 C 6,0 km/h (2 Bft)
30.08.2013 15:15 21,8 C 46 % 1024,0 hPa 0,0 l/m 3,9 km/h (1 Bft) W-NW 292 9,7 C 23,9 C 4,2 km/h (1 Bft)
30.08.2013 15:20 22,9 C 46 % 1023,8 hPa 0,0 l/m 3,9 km/h (1 Bft) N-NW 337 10,7 C 24,7 C 4,8 km/h (1 Bft)
30.08.2013 15:25 22,8 C 41 % 1023,8 hPa 0,0 l/m 4,0 km/h (1 Bft) S 180 8,9 C 25,2 C 3,7 km/h (1 Bft)
30.08.2013 15:30 22,6 C 42 % 1023,8 hPa 0,0 l/m 4,0 km/h (1 Bft) S 180 9,0 C 25,6 C 3,1 km/h (1 Bft)
30.08.2013 15:35 23,2 C 39 % 1023,8 hPa 0,0 l/m 2,4 km/h (1 Bft) O-SO 112 8,5 C 26,6 C 3,2 km/h (1 Bft)
30.08.2013 15:40 22,8 C 41 % 1023,7 hPa 0,0 l/m 1,9 km/h (1 Bft) W-NW 292 8,9 C 27,5 C 5,8 km/h (2 Bft)
30.08.2013 15:45 22,8 C 38 % 1023,7 hPa 0,0 l/m 3,5 km/h (1 Bft) NW 315 7,7 C 26,8 C 7,7 km/h (2 Bft)
30.08.2013 15:50 22,8 C 38 % 1023,7 hPa 0,0 l/m 4,0 km/h (1 Bft) NW 315 7,7 C 26,4 C 0,0 km/h (0 Bft)
30.08.2013 15:55 23,1 C 37 % 1023,7 hPa 0,0 l/m 2,3 km/h (1 Bft) S-SO 157 7,6 C 27,0 C 0,0 km/h (0 Bft)
30.08.2013 16:00 22,6 C 38 % 1023,7 hPa 0,0 l/m 1,0 km/h (0 Bft) S-SW 202 7,6 C 27,5 C 3,2 km/h (1 Bft)
30.08.2013 16:05 22,6 C 36 % 1023,7 hPa 0,0 l/m 1,4 km/h (1 Bft) W-SW 247 6,8 C 27,5 C 4,3 km/h (1 Bft)
30.08.2013 16:10 22,6 C 37 % 1023,7 hPa 0,0 l/m 2,7 km/h (1 Bft) NW 315 7,2 C 27,3 C 6,6 km/h (2 Bft)
30.08.2013 16:15 21,6 C 39 % 1023,7 hPa 0,0 l/m 3,5 km/h (1 Bft) W 270 7,0 C 26,5 C 3,4 km/h (1 Bft)
30.08.2013 16:20 21,5 C 39 % 1023,7 hPa 0,0 l/m 3,9 km/h (1 Bft) W 270 7,0 C 25,6 C 4,3 km/h (1 Bft)
30.08.2013 16:25 21,2 C 43 % 1023,7 hPa 0,0 l/m 2,9 km/h (1 Bft) W 270 8,1 C 24,9 C 3,1 km/h (1 Bft)
30.08.2013 16:30 21,2 C 43 % 1023,7 hPa 0,0 l/m 2,1 km/h (1 Bft) W-SW 247 8,1 C 24,6 C 5,6 km/h (1 Bft)
30.08.2013 16:35 21,2 C 42 % 1023,7 hPa 0,0 l/m 2,4 km/h (1 Bft) SW 225 7,8 C 24,1 C 3,5 km/h (1 Bft)
30.08.2013 16:40 21,0 C 42 % 1023,6 hPa 0,0 l/m 2,9 km/h (1 Bft) S 180 7,6 C 24,3 C 4,2 km/h (1 Bft)
30.08.2013 16:45 20,3 C 45 % 1023,6 hPa 0,0 l/m 3,1 km/h (1 Bft) W 270 8,0 C 23,5 C 4,0 km/h (1 Bft)
30.08.2013 16:50 19,9 C 45 % 1023,6 hPa 0,0 l/m 2,7 km/h (1 Bft) W 270 7,6 C 22,6 C 0,0 km/h (0 Bft)
30.08.2013 16:55 19,6 C 49 % 1023,6 hPa 0,0 l/m 1,4 km/h (1 Bft) N 360 8,6 C 22,2 C 2,6 km/h (1 Bft)
30.08.2013 17:00 19,6 C 48 % 1023,2 hPa 0,0 l/m 0,8 km/h (0 Bft) N 360 8,3 C 23,2 C 2,7 km/h (1 Bft)
30.08.2013 17:05 19,5 C 48 % 1023,2 hPa 0,0 l/m 1,1 km/h (1 Bft) O-SO 112 8,2 C 24,8 C 1,8 km/h (1 Bft)
30.08.2013 17:10 19,4 C 47 % 1023,2 hPa 0,0 l/m 1,6 km/h (1 Bft) W-NW 292 7,8 C 24,8 C 2,3 km/h (1 Bft)
30.08.2013 17:15 19,2 C 46 % 1023,2 hPa 0,0 l/m 1,6 km/h (1 Bft) NO 45 7,3 C 25,0 C 0,0 km/h (0 Bft)
30.08.2013 17:20 19,2 C 49 % 1023,3 hPa 0,0 l/m 1,3 km/h (1 Bft) NO 45 8,2 C 24,6 C 2,1 km/h (1 Bft)
30.08.2013 17:25 19,2 C 50 % 1023,3 hPa 0,0 l/m 1,3 km/h (1 Bft) O-NO 67 8,5 C 25,9 C 1,9 km/h (1 Bft)
30.08.2013 17:30 19,1 C 49 % 1023,3 hPa 0,0 l/m 1,8 km/h (1 Bft) NO 45 8,1 C 26,4 C 2,1 km/h (1 Bft)
30.08.2013 17:35 18,9 C 49 % 1023,3 hPa 0,0 l/m 1,6 km/h (1 Bft) N-NW 337 7,9 C 25,9 C 2,6 km/h (1 Bft)
30.08.2013 17:40 18,7 C 50 % 1023,2 hPa 0,0 l/m 1,3 km/h (1 Bft) O-NO 67 8,1 C 24,6 C 0,0 km/h (0 Bft)
30.08.2013 17:45 18,4 C 53 % 1023,2 hPa 0,0 l/m 0,8 km/h (0 Bft) NO 45 8,6 C 23,2 C 2,3 km/h (1 Bft)
30.08.2013 17:50 18,4 C 53 % 1023,2 hPa 0,0 l/m 1,4 km/h (1 Bft) O 90 8,6 C 22,3 C 2,7 km/h (1 Bft)
30.08.2013 17:55 18,6 C 54 % 1023,2 hPa 0,0 l/m 1,4 km/h (1 Bft) NO 45 9,1 C 22,2 C 0,0 km/h (0 Bft)
30.08.2013 18:00 18,7 C 54 % 1022,9 hPa 0,0 l/m 0,8 km/h (0 Bft) O-NO 67 9,2 C 22,4 C 0,0 km/h (0 Bft)
30.08.2013 18:05 18,9 C 53 % 1022,9 hPa 0,0 l/m 1,8 km/h (1 Bft) W-SW 247 9,1 C 21,9 C 3,9 km/h (1 Bft)
30.08.2013 18:10 18,9 C 53 % 1022,9 hPa 0,0 l/m 2,3 km/h (1 Bft) W-NW 292 9,1 C 21,8 C 1,6 km/h (1 Bft)
30.08.2013 18:15 18,7 C 52 % 1022,9 hPa 0,0 l/m 1,3 km/h (1 Bft) W 270 8,6 C 22,8 C 1,6 km/h (1 Bft)
30.08.2013 18:20 18,4 C 54 % 1022,6 hPa 0,0 l/m 0,8 km/h (0 Bft) W 270 8,9 C 23,6 C 2,7 km/h (1 Bft)
30.08.2013 18:25 17,9 C 56 % 1022,6 hPa 0,0 l/m 0,6 km/h (0 Bft) NO 45 9,0 C 22,5 C 0,0 km/h (0 Bft)
30.08.2013 18:30 17,6 C 56 % 1022,6 hPa 0,0 l/m 0,5 km/h (0 Bft) O-NO 67 8,7 C 21,6 C 1,8 km/h (1 Bft)
30.08.2013 18:35 17,3 C 57 % 1022,6 hPa 0,0 l/m 1,4 km/h (1 Bft) O-NO 67 8,7 C 20,3 C 2,6 km/h (1 Bft)
30.08.2013 18:40 17,3 C 57 % 1022,9 hPa 0,0 l/m 2,4 km/h (1 Bft) O 90 8,7 C 20,3 C 3,1 km/h (1 Bft)
30.08.2013 18:45 17,4 C 57 % 1022,9 hPa 0,0 l/m 2,4 km/h (1 Bft) NO 45 8,8 C 20,8 C 2,7 km/h (1 Bft)
30.08.2013 18:50 17,2 C 58 % 1022,9 hPa 0,0 l/m 2,4 km/h (1 Bft) O-NO 67 8,9 C 20,6 C 3,4 km/h (1 Bft)
30.08.2013 18:55 17,0 C 59 % 1022,9 hPa 0,0 l/m 2,9 km/h (1 Bft) NO 45 8,9 C 20,6 C 3,5 km/h (1 Bft)
30.08.2013 19:00 17,2 C 58 % 1022,6 hPa 0,0 l/m 3,1 km/h (1 Bft) NO 45 8,9 C 20,8 C 3,5 km/h (1 Bft)
30.08.2013 19:05 17,0 C 58 % 1022,6 hPa 0,0 l/m 3,1 km/h (1 Bft) NO 45 8,7 C 20,2 C 3,5 km/h (1 Bft)
30.08.2013 19:10 16,7 C 59 % 1022,6 hPa 0,0 l/m 3,1 km/h (1 Bft) NO 45 8,6 C 19,3 C 3,2 km/h (1 Bft)
30.08.2013 19:15 16,3 C 61 % 1022,6 hPa 0,0 l/m 1,9 km/h (1 Bft) O 90 8,8 C 18,5 C 2,3 km/h (1 Bft)
30.08.2013 19:20 15,9 C 65 % 1022,6 hPa 0,0 l/m 2,1 km/h (1 Bft) O-NO 67 9,3 C 18,1 C 3,4 km/h (1 Bft)
30.08.2013 19:25 15,7 C 67 % 1022,6 hPa 0,0 l/m 3,2 km/h (1 Bft) NO 45 9,6 C 17,4 C 3,4 km/h (1 Bft)
30.08.2013 19:30 15,5 C 69 % 1022,6 hPa 0,0 l/m 3,7 km/h (1 Bft) O 90 9,8 C 16,9 C 3,7 km/h (1 Bft)
30.08.2013 19:35 15,3 C 70 % 1022,6 hPa 0,0 l/m 3,4 km/h (1 Bft) O 90 9,9 C 16,5 C 3,7 km/h (1 Bft)
30.08.2013 19:40 14,9 C 71 % 1022,7 hPa 0,0 l/m 2,9 km/h (1 Bft) O 90 9,7 C 16,1 C 3,1 km/h (1 Bft)
30.08.2013 19:45 14,7 C 73 % 1022,7 hPa 0,0 l/m 3,5 km/h (1 Bft) S-SW 202 9,9 C 15,8 C 4,7 km/h (1 Bft)
30.08.2013 19:50 14,5 C 73 % 1022,7 hPa 0,0 l/m 4,2 km/h (1 Bft) O 90 9,7 C 15,6 C 4,8 km/h (1 Bft)
30.08.2013 19:55 14,3 C 75 % 1022,7 hPa 0,0 l/m 4,2 km/h (1 Bft) O 90 9,9 C 15,1 C 2,9 km/h (1 Bft)
30.08.2013 20:00 14,2 C 75 % 1023,0 hPa 0,0 l/m 3,7 km/h (1 Bft) NO 45 9,8 C 14,8 C 4,8 km/h (1 Bft)
30.08.2013 20:05 14,1 C 75 % 1023,0 hPa 0,0 l/m 3,7 km/h (1 Bft) O-NO 67 9,7 C 14,4 C 4,5 km/h (1 Bft)
30.08.2013 20:10 14,1 C 75 % 1023,0 hPa 0,0 l/m 3,7 km/h (1 Bft) O-NO 67 9,7 C 14,4 C 4,5 km/h (1 Bft)
30.08.2013 20:15 13,9 C 75 % 1023,0 hPa 0,0 l/m 4,3 km/h (1 Bft) O 90 9,5 C 14,2 C 4,8 km/h (1 Bft)
30.08.2013 20:20 13,8 C 75 % 1023,0 hPa 0,0 l/m 4,3 km/h (1 Bft) O 90 9,4 C 14,0 C 4,3 km/h (1 Bft)
30.08.2013 20:25 13,8 C 75 % 1023,1 hPa 0,0 l/m 4,2 km/h (1 Bft) O 90 9,4 C 13,9 C 4,2 km/h (1 Bft)
30.08.2013 20:30 13,8 C 76 % 1023,1 hPa 0,0 l/m 4,2 km/h (1 Bft) O 90 9,6 C 13,8 C 4,5 km/h (1 Bft)
30.08.2013 20:35 13,7 C 76 % 1023,1 hPa 0,0 l/m 4,0 km/h (1 Bft) O 90 9,5 C 13,8 C 3,9 km/h (1 Bft)
30.08.2013 20:40 13,4 C 76 % 1023,1 hPa 0,0 l/m 3,2 km/h (1 Bft) O-SO 112 9,3 C 13,6 C 2,1 km/h (1 Bft)
30.08.2013 20:45 13,2 C 76 % 1023,1 hPa 0,0 l/m 2,3 km/h (1 Bft) O 90 9,1 C 13,4 C 2,7 km/h (1 Bft)
30.08.2013 20:50 12,9 C 78 % 1023,1 hPa 0,0 l/m 1,3 km/h (1 Bft) O 90 9,2 C 13,1 C 0,0 km/h (0 Bft)
30.08.2013 20:55 12,8 C 78 % 1023,1 hPa 0,0 l/m 1,0 km/h (0 Bft) O 90 9,1 C 12,9 C 0,0 km/h (0 Bft)
30.08.2013 21:00 12,3 C 77 % 1023,1 hPa 0,0 l/m 0,2 km/h (0 Bft) O-SO 112 8,4 C 12,4 C 0,0 km/h (0 Bft)
30.08.2013 21:05 12,2 C 78 % 1023,2 hPa 0,0 l/m 0,2 km/h (0 Bft) O-SO 112 8,5 C 12,2 C 0,0 km/h (0 Bft)
30.08.2013 21:10 12,2 C 78 % 1023,2 hPa 0,0 l/m 0,5 km/h (0 Bft) O-NO 67 8,5 C 12,1 C 0,0 km/h (0 Bft)
30.08.2013 21:15 12,1 C 78 % 1023,2 hPa 0,0 l/m 0,5 km/h (0 Bft) O-NO 67 8,4 C 12,0 C 0,0 km/h (0 Bft)
30.08.2013 21:20 11,9 C 79 % 1023,2 hPa 0,0 l/m 0,0 km/h (0 Bft) O-SO 112 8,4 C 11,9 C 0,0 km/h (0 Bft)
30.08.2013 21:25 11,9 C 79 % 1023,6 hPa 0,0 l/m 0,2 km/h (0 Bft) O 90 8,4 C 11,7 C 0,0 km/h (0 Bft)
30.08.2013 21:30 11,7 C 79 % 1023,6 hPa 0,0 l/m 0,0 km/h (0 Bft) O 90 8,2 C 11,6 C 0,0 km/h (0 Bft)
30.08.2013 21:35 11,7 C 79 % 1023,6 hPa 0,0 l/m 0,0 km/h (0 Bft) O 90 8,2 C 11,5 C 0,0 km/h (0 Bft)
30.08.2013 21:40 11,4 C 79 % 1023,6 hPa 0,0 l/m 0,0 km/h (0 Bft) O-NO 67 7,9 C 11,2 C 0,0 km/h (0 Bft)
30.08.2013 21:45 11,3 C 79 % 1023,6 hPa 0,0 l/m 0,0 km/h (0 Bft) S 180 7,8 C 11,0 C 0,0 km/h (0 Bft)
30.08.2013 21:50 11,2 C 80 % 1023,6 hPa 0,0 l/m 0,0 km/h (0 Bft) O 90 7,9 C 10,9 C 0,0 km/h (0 Bft)
30.08.2013 21:55 11,2 C 81 % 1023,6 hPa 0,0 l/m 0,0 km/h (0 Bft) O 90 8,1 C 10,8 C 0,0 km/h (0 Bft)
30.08.2013 22:00 11,3 C 81 % 1023,6 hPa 0,0 l/m 0,0 km/h (0 Bft) O-NO 67 8,2 C 10,9 C 0,0 km/h (0 Bft)
30.08.2013 22:05 11,2 C 81 % 1023,6 hPa 0,0 l/m 0,0 km/h (0 Bft) NO 45 8,1 C 10,9 C 0,0 km/h (0 Bft)
30.08.2013 22:10 11,2 C 81 % 1023,6 hPa 0,0 l/m 0,0 km/h (0 Bft) O-NO 67 8,1 C 11,0 C 0,0 km/h (0 Bft)
30.08.2013 22:15 11,4 C 82 % 1023,6 hPa 0,0 l/m 0,2 km/h (0 Bft) O 90 8,4 C 11,1 C 0,0 km/h (0 Bft)
30.08.2013 22:20 11,6 C 82 % 1023,6 hPa 0,0 l/m 0,5 km/h (0 Bft) O-SO 112 8,6 C 11,2 C 1,8 km/h (1 Bft)
30.08.2013 22:25 11,6 C 82 % 1023,6 hPa 0,0 l/m 0,3 km/h (0 Bft) N 360 8,6 C 11,3 C 0,0 km/h (0 Bft)
30.08.2013 22:30 11,4 C 81 % 1023,6 hPa 0,0 l/m 0,2 km/h (0 Bft) O-NO 67 8,3 C 11,2 C 0,0 km/h (0 Bft)
30.08.2013 22:35 11,3 C 82 % 1023,6 hPa 0,0 l/m 0,2 km/h (0 Bft) S 180 8,3 C 11,0 C 0,0 km/h (0 Bft)
30.08.2013 22:40 11,3 C 82 % 1023,6 hPa 0,0 l/m 0,3 km/h (0 Bft) NO 45 8,3 C 11,0 C 0,0 km/h (0 Bft)
30.08.2013 22:45 11,3 C 82 % 1023,6 hPa 0,0 l/m 0,5 km/h (0 Bft) O-SO 112 8,3 C 11,0 C 0,0 km/h (0 Bft)
30.08.2013 22:50 11,0 C 81 % 1023,6 hPa 0,0 l/m 0,2 km/h (0 Bft) O-NO 67 7,9 C 10,7 C 0,0 km/h (0 Bft)
30.08.2013 22:55 10,9 C 82 % 1023,6 hPa 0,0 l/m 0,2 km/h (0 Bft) O-SO 112 7,9 C 10,6 C 0,0 km/h (0 Bft)
30.08.2013 23:00 10,9 C 82 % 1023,6 hPa 0,0 l/m 0,6 km/h (0 Bft) O-SO 112 7,9 C 10,5 C 2,6 km/h (1 Bft)
30.08.2013 23:05 10,9 C 82 % 1023,5 hPa 0,0 l/m 1,0 km/h (0 Bft) O 90 7,9 C 10,5 C 0,0 km/h (0 Bft)
30.08.2013 23:10 10,8 C 82 % 1023,5 hPa 0,0 l/m 0,8 km/h (0 Bft) O 90 7,9 C 10,5 C 0,0 km/h (0 Bft)
30.08.2013 23:15 10,8 C 82 % 1023,5 hPa 0,0 l/m 0,5 km/h (0 Bft) O 90 7,9 C 10,4 C 0,0 km/h (0 Bft)
30.08.2013 23:20 10,7 C 82 % 1023,5 hPa 0,0 l/m 0,5 km/h (0 Bft) O-SO 112 7,8 C 10,3 C 0,0 km/h (0 Bft)
30.08.2013 23:25 10,6 C 82 % 1023,6 hPa 0,0 l/m 0,5 km/h (0 Bft) SW 225 7,7 C 10,3 C 0,0 km/h (0 Bft)
30.08.2013 23:30 10,6 C 83 % 1023,6 hPa 0,0 l/m 0,3 km/h (0 Bft) N-NW 337 7,8 C 10,3 C 0,0 km/h (0 Bft)
30.08.2013 23:35 10,5 C 82 % 1023,6 hPa 0,0 l/m 0,3 km/h (0 Bft) O-SO 112 7,6 C 10,3 C 0,0 km/h (0 Bft)
30.08.2013 23:40 10,4 C 82 % 1023,6 hPa 0,0 l/m 0,0 km/h (0 Bft) NO 45 7,5 C 10,1 C 0,0 km/h (0 Bft)
30.08.2013 23:45 10,1 C 82 % 1023,4 hPa 0,0 l/m 0,0 km/h (0 Bft) S-SW 202 7,2 C 10,0 C 0,0 km/h (0 Bft)
30.08.2013 23:50 10,1 C 83 % 1023,4 hPa 0,0 l/m 0,2 km/h (0 Bft) S 180 7,3 C 10,0 C 0,0 km/h (0 Bft)
30.08.2013 23:55 10,1 C 83 % 1023,4 hPa 0,0 l/m 0,2 km/h (0 Bft) S 180 7,3 C 10,0 C 0,0 km/h (0 Bft)
_ Min-Zeit 05:35 16:05 19:35 - 23:45 - - 05:35 05:50 23:55
Minimum _ 5,6 C 36 % 1022,6 hPa - 0,0 km/h (0 Bft) - - 4,6 C 5,4 C 0,0 km/h (0 Bft)
_ Max-Zeit 15:35 06:30 13:15 23:55 13:20 - - 09:20 16:05 14:30
Maximum _ 23,2 C 94 % 1024,4 hPa 0,0 l/m 4,8 km/h
N-NO (1 Bft)
- - 12,4 C 27,5 C 12,2 km/h
N-NW (2 Bft)
Durchschnitt _ 14,2 C 70 % 1023,4 hPa #0,0 l/m 1,3 km/h (1 Bft) NO - 8,0 C 15,6 C 1,7 km/h (1 Bft)